SL-8 DEB *

Satellite information

Favourite Embed

Satellite Type and Status

DEBRISIN ORBIT

Key statistics

Satellite SL-8 DEB * at a glance.

Uptime

16193

Days in orbit

Revolutions

≈ 14.7

Per day

Orbit

LEO

Low Earth Orbit

Inclination

74.0

Latest

Satellite identification and parameters

Extended collection of information and parameters for SL-8 DEB *.

Object identification

Identified? True

Debris? True

Object name: SL-8 DEB *

International designator: 1981-041C

Object number (NORAD): 13498

Object ID (CCSDS): 13498

Country: COMMONWEALTH OF INDEPENDENT STATES (CIS)

Current information (Y/N): Y

RCS size: SMALL

Orbital parameters

Period: 97.964 minutes

Inclination: 74.016 deg

SMA: 7039.438 km

Apoapsis: 668.089 km

Periapsis: 654.517 km

RAAN: 131.7746 deg

Eccentricy: 0.00096403

Argument of periapsis: 288.4712 deg

Mean anomaly: 136.3212 deg

Mean motion: 14.69926971 rev/day

Mean motion (dot): 0.00004111 rev/day2

B* drag term: 0.00069116469 1/REarth

Two-line elements (TLE)

Creation date: Sept. 6, 2025, 2:09 a.m.

Reference frame: TEME

Reference center: EARTH

Epoch: Sept. 5, 2025, 6:39 p.m. UTC

TLE line 0: 0 SL-8 DEB *

TLE line 1: 1 13498U 81041C 25248.77729838 .00004111 00000-0 69116-3 0 9994

TLE line 2: 2 13498 74.0160 131.7746 0009640 288.4712 136.3212 14.69926971359240

Live tracking on map

Real-time ground track for satellite SL-8 DEB *.

In-orbit conjunctions

A list of the most updated potential collisions computed for object SL-8 DEB *.

Target Orbit TCA Probability of collision Miss distance Type
TAURUS R/B LEO 2024-11-15 18:06:11 0.0001610285 862.0 (m) ROCKET BODY

Associated space launch

Military communications satellite

SL-8 DEB * was lifted into orbit during the mission ‘Kosmos-3M | Strela-2M 24’, on board a Kosmos-3M space rocket.

The launch took place on May 7, 1981, 1:21 p.m. from 132/1 (132L).

For more information about the launch, click the button.

Launch to space Kosmos-3M | Strela-2M 24
Kosmos-3M | Strela-2M 24

Agency: N/A

Status: Launch Successful

Launch date: May 7, 1981, 1:21 p.m. UTC

Rocket: Kosmos-3M

Launch pad: 132/1 (132L)

Location: Plesetsk Cosmodrome, Russian Federation

...

Latest news about this satellite

There are no fresh news available about this satellite. Check back as we update our databases every day.


Newsletter sign-up

Weekly statistics, charts and insights to help you stay on top of the space industry.